This is the latest recevied weather packets stored in our database for station/object SV9TNF-4. If no packets are shown the sender has not sent any weather packets the latest 10 day(s).
| Time | Temp. | Humidity | Pressure | Rain* | Wind** | Luminosity | Snow |
|---|---|---|---|---|---|---|---|
| 1777434555 | 21.11° C | 40% | 1015.9 hPa | 0 mm | 21.01 m/s, 14° | - | - |
| 1777434254 | 21.11° C | 40% | 1015.9 hPa | 0 mm | 21.01 m/s, 14° | - | - |
| 1777433955 | 21.11° C | 40% | 1015.9 hPa | 0 mm | 21.01 m/s, 14° | - | - |
| 1777433654 | 21.11° C | 40% | 1015.9 hPa | 0 mm | 21.01 m/s, 14° | - | - |
| 1777433354 | 20.56° C | 40% | 1015.9 hPa | 0 mm | 22.35 m/s, 17° | - | - |
| 1777433054 | 20.56° C | 40% | 1015.9 hPa | 0 mm | 22.35 m/s, 17° | - | - |
| 1777432754 | 20.56° C | 40% | 1015.9 hPa | 0 mm | 22.35 m/s, 17° | - | - |
| 1777432454 | 20.56° C | 40% | 1015.9 hPa | 0 mm | 21.01 m/s, 28° | - | - |
| 1777432154 | 20.56° C | 40% | 1015.9 hPa | 0 mm | 21.01 m/s, 28° | - | - |
| 1777431854 | 20.56° C | 40% | 1015.9 hPa | 0 mm | 21.01 m/s, 28° | - | - |
| 1777431553 | 20.56° C | 36% | 1016.3 hPa | 0 mm | 12.96 m/s, 20° | - | - |
| 1777431254 | 20.56° C | 36% | 1016.3 hPa | 0 mm | 12.96 m/s, 20° | - | - |
| 1777430953 | 20.56° C | 36% | 1016.3 hPa | 0 mm | 12.96 m/s, 20° | - | - |
| 1777430653 | 20.56° C | 36% | 1016.3 hPa | 0 mm | 12.96 m/s, 20° | - | - |
| 1777430353 | 20.56° C | 36% | 1016.3 hPa | 0 mm | 12.96 m/s, 20° | - | - |
| 1777430053 | 20.56° C | 36% | 1016.3 hPa | 0 mm | 12.96 m/s, 20° | - | - |
| 1777429753 | 20.56° C | 36% | 1016.3 hPa | 0 mm | 12.96 m/s, 20° | - | - |
| 1777429453 | 20.56° C | 36% | 1016.3 hPa | 0 mm | 12.96 m/s, 20° | - | - |
| 1777429153 | 20.56° C | 36% | 1016.3 hPa | 0 mm | 12.96 m/s, 20° | - | - |
| 1777428853 | 21.11° C | 36% | 1016.3 hPa | 0 mm | 16.09 m/s, 13° | - | - |
| 1777428553 | 21.11° C | 36% | 1016.3 hPa | 0 mm | 16.09 m/s, 13° | - | - |
| 1777428253 | 21.11° C | 36% | 1016.3 hPa | 0 mm | 16.09 m/s, 13° | - | - |
| 1777427953 | 21.11° C | 36% | 1016.3 hPa | 0 mm | 27.27 m/s, 1° | - | - |
| 1777427652 | 21.11° C | 36% | 1016.3 hPa | 0 mm | 27.27 m/s, 1° | - | - |
| 1777427352 | 21.11° C | 36% | 1016.3 hPa | 0 mm | 27.27 m/s, 1° | - | - |
* Rain latest hour (hover to see other rain measurements)
** Current wind speed in m/s (hover to see current wind gust speed)